CES6833 ZLLL-ZLDH

Flight info

Callsign CES6833
Flight time 1h 14m
Altitude 27600
Route LELUX B215 TODOD
Aircraft A320/M-SDE3FGHIRWY/LB1

Departure

Time 2026-04-12 05:19
Airport Lanzhou Zhongchuan International Airport (ZLLL)

Arrival

Time 2026-04-12 06:33
Airport Dunhuang Mogao International Airport (ZLDH)
Time Latitude Longitude Altitude Speed Heading
2026-04-12 05:17 36.50545 103.64435 6347 ft 24 kts 177°
2026-04-12 05:17 36.50407 103.64444 6344 ft 17 kts 173°
2026-04-12 05:17 36.50373 103.64565 6343 ft 17 kts 85°
2026-04-12 05:18 36.50436 103.64644 6343 ft 14 kts 352°
2026-04-12 05:18 36.50564 103.64634 6346 ft 36 kts 357°
2026-04-12 05:18 36.51045 103.64604 6353 ft 100 kts 357°
2026-04-12 05:18 36.51926 103.64547 6369 ft 151 kts 357°
2026-04-12 05:19 36.53100 103.64474 6523 ft 181 kts 358°
2026-04-12 05:19 36.54369 103.64400 7137 ft 184 kts
2026-04-12 05:19 36.55614 103.64700 7824 ft 183 kts 25°
2026-04-12 05:19 36.56767 103.65436 8363 ft 193 kts 31°
2026-04-12 05:20 36.57992 103.66338 8545 ft 216 kts 32°
2026-04-12 05:20 36.59339 103.67342 8765 ft 241 kts 32°
2026-04-12 05:20 36.60836 103.68436 9218 ft 255 kts 31°
2026-04-12 05:20 36.62395 103.69548 9952 ft 260 kts 31°
2026-04-12 05:21 36.63986 103.70659 10699 ft 264 kts 30°
2026-04-12 05:21 36.65599 103.71769 11437 ft 266 kts 30°
2026-04-12 05:21 36.67331 103.72609 12134 ft 273 kts 10°
2026-04-12 05:21 36.69311 103.72719 12391 ft 297 kts
2026-04-12 05:22 36.71471 103.72682 12598 ft 321 kts
2026-04-12 05:22 36.73788 103.72597 12758 ft 345 kts 360°
2026-04-12 05:22 36.76258 103.72493 12896 ft 366 kts 359°
2026-04-12 05:22 36.78880 103.72391 13029 ft 386 kts 360°
2026-04-12 05:23 36.81611 103.72302 13328 ft 398 kts 360°
2026-04-12 05:23 36.84392 103.72078 13834 ft 405 kts 351°
2026-04-12 05:23 36.87091 103.71002 14334 ft 411 kts 335°
2026-04-12 05:23 36.89470 103.68995 14800 ft 417 kts 317°
2026-04-12 05:24 36.91379 103.66312 15303 ft 421 kts 309°
2026-04-12 05:24 36.93259 103.63428 15813 ft 424 kts 309°
2026-04-12 05:24 36.95102 103.60594 16305 ft 428 kts 308°
2026-04-12 05:24 36.96987 103.57698 16797 ft 431 kts 308°
2026-04-12 05:25 36.98889 103.54772 17278 ft 434 kts 308°
2026-04-12 05:25 37.00802 103.51831 17779 ft 437 kts 308°
2026-04-12 05:25 37.02732 103.48875 18281 ft 440 kts 308°
2026-04-12 05:25 37.04672 103.45903 18715 ft 443 kts 308°
2026-04-12 05:26 37.06627 103.42904 19141 ft 445 kts 308°
2026-04-12 05:26 37.08588 103.39894 19584 ft 447 kts 308°
2026-04-12 05:26 37.10551 103.36873 19984 ft 449 kts 307°
2026-04-12 05:26 37.12531 103.33819 20389 ft 451 kts 307°
2026-04-12 05:27 37.14381 103.30647 20783 ft 451 kts 300°
2026-04-12 05:27 37.15823 103.27158 21174 ft 451 kts 290°
2026-04-12 05:27 37.16842 103.23442 21544 ft 451 kts 284°
2026-04-12 05:27 37.17752 103.19668 21928 ft 452 kts 284°
2026-04-12 05:28 37.18667 103.15890 22312 ft 454 kts 285°
2026-04-12 05:28 37.19586 103.12103 22674 ft 456 kts 285°
2026-04-12 05:28 37.20512 103.08297 23034 ft 457 kts 285°
2026-04-12 05:28 37.21439 103.04485 23373 ft 458 kts 285°
2026-04-12 05:29 37.22369 103.00648 23724 ft 460 kts 284°
2026-04-12 05:29 37.23294 102.96793 24006 ft 461 kts 284°
2026-04-12 05:29 37.24215 102.92935 24261 ft 462 kts 284°
2026-04-12 05:29 37.25139 102.89062 24514 ft 464 kts 284°
2026-04-12 05:30 37.25755 102.86481 24691 ft 465 kts 284°
2026-04-12 05:30 37.26996 102.81279 25112 ft 465 kts 284°
2026-04-12 05:30 37.27610 102.78706 25366 ft 464 kts 284°
2026-04-12 05:30 37.28538 102.74826 25723 ft 464 kts 284°
2026-04-12 05:31 37.29463 102.70953 26090 ft 463 kts 284°
2026-04-12 05:31 37.30382 102.67085 26464 ft 462 kts 284°
2026-04-12 05:31 37.31298 102.63215 26841 ft 461 kts 284°
2026-04-12 05:31 37.32211 102.59356 27221 ft 461 kts 284°
2026-04-12 05:32 37.33121 102.55501 27592 ft 460 kts 284°
2026-04-12 05:32 37.34031 102.51649 27980 ft 459 kts 284°
2026-04-12 05:32 37.34936 102.47796 28370 ft 459 kts 284°
2026-04-12 05:32 37.35835 102.43954 28750 ft 458 kts 284°
2026-04-12 05:33 37.36689 102.40097 29105 ft 457 kts 282°
2026-04-12 05:33 37.37475 102.36230 29477 ft 456 kts 282°
2026-04-12 05:33 37.38215 102.32351 29854 ft 456 kts 281°
2026-04-12 05:33 37.38937 102.28474 30193 ft 456 kts 281°
2026-04-12 05:34 37.39665 102.24582 30248 ft 460 kts 281°
2026-04-12 05:34 37.41176 102.16701 30246 ft 464 kts 281°
2026-04-12 05:35 37.42719 102.08810 30241 ft 465 kts 281°
2026-04-12 05:35 37.44261 102.00899 30230 ft 465 kts 281°
2026-04-12 05:36 37.45791 101.92989 30225 ft 465 kts 281°
2026-04-12 05:36 37.47314 101.85077 30215 ft 465 kts 281°
2026-04-12 05:37 37.48826 101.77161 30215 ft 465 kts 280°
2026-04-12 05:37 37.50433 101.69263 30204 ft 467 kts 286°
2026-04-12 05:38 37.53206 101.61826 30202 ft 471 kts 294°
2026-04-12 05:38 37.56195 101.54475 30203 ft 471 kts 294°
2026-04-12 05:39 37.59145 101.47170 30196 ft 471 kts 293°
2026-04-12 05:39 37.62099 101.39812 30181 ft 470 kts 293°
2026-04-12 05:40 37.65055 101.32445 30179 ft 470 kts 293°
2026-04-12 05:40 37.68127 101.25150 30180 ft 471 kts 296°
2026-04-12 05:41 37.71377 101.17959 30178 ft 471 kts 296°
2026-04-12 05:41 37.74628 101.10784 30175 ft 470 kts 296°
2026-04-12 05:42 37.77815 101.03579 30174 ft 469 kts 295°
2026-04-12 05:42 37.80964 100.96362 30175 ft 468 kts 295°
2026-04-12 05:43 37.85677 100.85564 30180 ft 467 kts 295°
2026-04-12 05:43 37.88770 100.78409 30178 ft 466 kts 295°
2026-04-12 05:44 37.91876 100.71187 30178 ft 466 kts 295°
2026-04-12 05:44 37.94978 100.63976 30175 ft 466 kts 295°
2026-04-12 05:45 37.98078 100.56771 30168 ft 466 kts 296°
2026-04-12 05:45 38.01174 100.49558 30167 ft 466 kts 296°
2026-04-12 05:46 38.04262 100.42346 30160 ft 465 kts 296°
2026-04-12 05:46 38.07346 100.35114 30153 ft 465 kts 296°
2026-04-12 05:47 38.10394 100.27943 30153 ft 465 kts 296°
2026-04-12 05:47 38.13461 100.20715 30153 ft 464 kts 295°
2026-04-12 05:48 38.16522 100.13498 30154 ft 464 kts 295°
2026-04-12 05:48 38.19577 100.06274 30150 ft 464 kts 295°
2026-04-12 05:49 38.22623 99.99047 30138 ft 464 kts 295°
2026-04-12 05:49 38.25755 99.91877 30143 ft 464 kts 296°
2026-04-12 05:50 38.28935 99.84722 30139 ft 464 kts 296°
2026-04-12 05:50 38.32101 99.77554 30143 ft 464 kts 296°
2026-04-12 05:51 38.35249 99.70373 30148 ft 464 kts 296°
2026-04-12 05:51 38.38375 99.63175 30133 ft 463 kts 295°
2026-04-12 05:52 38.41491 99.55987 30129 ft 463 kts 296°
2026-04-12 05:52 38.44589 99.48830 30139 ft 463 kts 295°
2026-04-12 05:53 38.47698 99.41644 30145 ft 463 kts 296°
2026-04-12 05:53 38.50817 99.34450 30122 ft 462 kts 296°
2026-04-12 05:54 38.53925 99.27262 30123 ft 462 kts 295°
2026-04-12 05:54 38.57013 99.20063 30119 ft 462 kts 295°
2026-04-12 05:55 38.60096 99.12874 30127 ft 461 kts 295°
2026-04-12 05:55 38.63180 99.05674 30120 ft 461 kts 295°
2026-04-12 05:56 38.66245 98.98484 30119 ft 460 kts 295°
2026-04-12 05:56 38.69286 98.91336 30116 ft 460 kts 295°
2026-04-12 05:57 38.72359 98.84098 30113 ft 459 kts 295°
2026-04-12 05:57 38.75407 98.76909 30108 ft 459 kts 295°
2026-04-12 05:58 38.78430 98.69768 30102 ft 458 kts 295°
2026-04-12 05:58 38.81470 98.62582 30098 ft 458 kts 295°
2026-04-12 05:59 38.84500 98.55392 30094 ft 458 kts 295°
2026-04-12 05:59 38.87522 98.48189 30093 ft 458 kts 295°
2026-04-12 06:00 38.90530 98.40997 30089 ft 457 kts 295°
2026-04-12 06:00 38.93540 98.33804 30096 ft 457 kts 295°
2026-04-12 06:01 38.96545 98.26609 30095 ft 457 kts 295°
2026-04-12 06:01 38.99545 98.19413 30099 ft 456 kts 295°
2026-04-12 06:02 39.02529 98.12220 30108 ft 456 kts 295°
2026-04-12 06:02 39.05506 98.05021 30114 ft 455 kts 295°
2026-04-12 06:03 39.08481 97.97836 30111 ft 455 kts 295°
2026-04-12 06:03 39.11427 97.90697 30115 ft 454 kts 295°
2026-04-12 06:04 39.14382 97.83512 30120 ft 454 kts 295°
2026-04-12 06:04 39.17342 97.76305 30123 ft 455 kts 295°
2026-04-12 06:05 39.20294 97.69093 30131 ft 455 kts 295°
2026-04-12 06:05 39.23239 97.61878 30138 ft 455 kts 294°
2026-04-12 06:06 39.26176 97.54641 30140 ft 455 kts 294°
2026-04-12 06:06 39.29089 97.47398 30146 ft 455 kts 294°
2026-04-12 06:07 39.32002 97.40155 30150 ft 454 kts 294°
2026-04-12 06:07 39.34910 97.32901 30150 ft 454 kts 294°
2026-04-12 06:08 39.37808 97.25647 30149 ft 454 kts 294°
2026-04-12 06:08 39.40704 97.18400 30152 ft 454 kts 294°
2026-04-12 06:09 39.43602 97.11140 29619 ft 454 kts 294°
2026-04-12 06:09 39.45048 97.07513 29076 ft 455 kts 294°
2026-04-12 06:09 39.46499 97.03861 28517 ft 456 kts 295°
2026-04-12 06:10 39.47952 97.00207 27986 ft 458 kts 295°
2026-04-12 06:10 39.49419 96.96540 27448 ft 459 kts 295°
2026-04-12 06:10 39.50876 96.92915 26944 ft 461 kts 295°
2026-04-12 06:10 39.52359 96.89224 26441 ft 462 kts 295°
2026-04-12 06:11 39.53839 96.85531 25944 ft 463 kts 296°
2026-04-12 06:11 39.55324 96.81815 25454 ft 465 kts 296°
2026-04-12 06:11 39.56812 96.78081 24976 ft 467 kts 296°
2026-04-12 06:11 39.58302 96.74341 24502 ft 468 kts 296°
2026-04-12 06:12 39.59794 96.70592 24029 ft 467 kts 296°
2026-04-12 06:12 39.61278 96.66863 23576 ft 465 kts 296°
2026-04-12 06:12 39.62752 96.63147 23027 ft 462 kts 296°
2026-04-12 06:12 39.64218 96.59452 22489 ft 458 kts 297°
2026-04-12 06:13 39.65670 96.55821 21956 ft 447 kts 297°
2026-04-12 06:13 39.67093 96.52293 21436 ft 437 kts 297°
2026-04-12 06:13 39.68493 96.48833 20925 ft 428 kts 297°
2026-04-12 06:13 39.69862 96.45450 20422 ft 420 kts 297°
2026-04-12 06:14 39.71203 96.42130 19932 ft 412 kts 297°
2026-04-12 06:14 39.72523 96.38855 19444 ft 405 kts 297°
2026-04-12 06:14 39.73814 96.35634 18964 ft 400 kts 297°
2026-04-12 06:14 39.75086 96.32448 18491 ft 395 kts 297°
2026-04-12 06:15 39.76327 96.29335 17985 ft 390 kts 297°
2026-04-12 06:15 39.77568 96.26219 17453 ft 386 kts 297°
2026-04-12 06:15 39.78802 96.23129 16912 ft 383 kts 297°
2026-04-12 06:15 39.80024 96.20072 16401 ft 380 kts 297°
2026-04-12 06:16 39.81234 96.17038 15902 ft 377 kts 297°
2026-04-12 06:16 39.82431 96.14027 15688 ft 373 kts 297°
2026-04-12 06:16 39.83620 96.11036 15440 ft 371 kts 297°
2026-04-12 06:16 39.84802 96.08056 15143 ft 369 kts 297°
2026-04-12 06:17 39.85975 96.05093 14847 ft 367 kts 297°
2026-04-12 06:17 39.87142 96.02143 14551 ft 365 kts 297°
2026-04-12 06:17 39.88303 95.99209 14262 ft 364 kts 297°
2026-04-12 06:17 39.89462 95.96286 13975 ft 362 kts 297°
2026-04-12 06:18 39.90611 95.93382 13675 ft 360 kts 297°
2026-04-12 06:18 39.91751 95.90494 13355 ft 357 kts 297°
2026-04-12 06:18 39.92884 95.87620 13033 ft 356 kts 297°
2026-04-12 06:18 39.94009 95.84757 12719 ft 354 kts 297°
2026-04-12 06:19 39.95110 95.81953 12415 ft 352 kts 297°
2026-04-12 06:19 39.96221 95.79128 12113 ft 349 kts 297°
2026-04-12 06:19 39.97314 95.76308 11812 ft 347 kts 296°
2026-04-12 06:19 39.98366 95.73497 11500 ft 341 kts 295°
2026-04-12 06:20 39.99369 95.70757 11353 ft 328 kts 295°
2026-04-12 06:20 40.00329 95.68122 11230 ft 315 kts 294°
2026-04-12 06:20 40.01255 95.65586 11098 ft 304 kts 295°
2026-04-12 06:20 40.02149 95.63146 10987 ft 294 kts 295°
2026-04-12 06:21 40.03017 95.60780 10813 ft 285 kts 295°
2026-04-12 06:21 40.03869 95.58463 10495 ft 282 kts 294°
2026-04-12 06:21 40.04716 95.56160 10147 ft 280 kts 294°
2026-04-12 06:21 40.05554 95.53872 9813 ft 279 kts 294°
2026-04-12 06:22 40.06390 95.51591 9479 ft 278 kts 294°
2026-04-12 06:22 40.07222 95.49327 9162 ft 276 kts 294°
2026-04-12 06:22 40.08157 95.47151 8875 ft 274 kts 303°
2026-04-12 06:22 40.09319 95.45180 8819 ft 276 kts 309°
2026-04-12 06:23 40.10549 95.43252 8825 ft 276 kts 308°
2026-04-12 06:23 40.11362 95.41970 8822 ft 277 kts 308°
2026-04-12 06:23 40.12986 95.39403 8728 ft 275 kts 308°
2026-04-12 06:23 40.14182 95.37511 8592 ft 264 kts 308°
2026-04-12 06:24 40.14960 95.36280 8504 ft 257 kts 308°
2026-04-12 06:24 40.16425 95.33961 8339 ft 243 kts 308°
2026-04-12 06:24 40.17130 95.32846 8258 ft 238 kts 308°
2026-04-12 06:24 40.18478 95.30633 8086 ft 227 kts 302°
2026-04-12 06:25 40.19176 95.28825 7956 ft 219 kts 289°
2026-04-12 06:25 40.19515 95.26931 7873 ft 209 kts 275°
2026-04-12 06:25 40.19541 95.25701 7826 ft 201 kts 269°
2026-04-12 06:25 40.19454 95.23914 7804 ft 195 kts 266°
2026-04-12 06:26 40.19329 95.22139 7806 ft 195 kts 264°
2026-04-12 06:26 40.19198 95.20374 7806 ft 194 kts 265°
2026-04-12 06:26 40.19066 95.18618 7806 ft 194 kts 265°
2026-04-12 06:26 40.18934 95.16861 7825 ft 194 kts 265°
2026-04-12 06:27 40.18802 95.15108 7804 ft 193 kts 265°
2026-04-12 06:27 40.18669 95.13355 7810 ft 194 kts 265°
2026-04-12 06:27 40.18536 95.11593 7732 ft 195 kts 265°
2026-04-12 06:27 40.18402 95.09832 7523 ft 194 kts 265°
2026-04-12 06:28 40.18269 95.08084 7291 ft 192 kts 265°
2026-04-12 06:28 40.18138 95.06362 7043 ft 188 kts 265°
2026-04-12 06:28 40.18010 95.04686 6812 ft 183 kts 265°
2026-04-12 06:28 40.17886 95.03071 6584 ft 173 kts 265°
2026-04-12 06:29 40.17772 95.01582 6395 ft 157 kts 266°
2026-04-12 06:29 40.17665 95.00199 6174 ft 149 kts 266°
2026-04-12 06:29 40.17563 94.98866 5997 ft 147 kts 269°
2026-04-12 06:29 40.17462 94.97552 5790 ft 144 kts 266°
2026-04-12 06:30 40.17362 94.96240 5604 ft 145 kts 267°
2026-04-12 06:30 40.17261 94.94941 5411 ft 144 kts 266°
2026-04-12 06:30 40.17161 94.93644 5226 ft 142 kts 267°
2026-04-12 06:30 40.17062 94.92359 5049 ft 142 kts 266°
2026-04-12 06:31 40.16962 94.91078 4861 ft 142 kts 267°
2026-04-12 06:31 40.16862 94.89778 4683 ft 143 kts 267°
2026-04-12 06:31 40.16763 94.88521 4505 ft 140 kts 266°
2026-04-12 06:31 40.16665 94.87244 4344 ft 142 kts 266°
2026-04-12 06:32 40.16569 94.85944 4176 ft 139 kts 265°
2026-04-12 06:32 40.16461 94.84674 3943 ft 142 kts 266°
2026-04-12 06:32 40.16359 94.83377 3772 ft 141 kts 265°
2026-04-12 06:32 40.16272 94.82160 3704 ft 125 kts 266°
2026-04-12 06:33 40.16195 94.81223 3695 ft 79 kts 264°
2026-04-12 06:33 40.16157 94.80759 3703 ft 24 kts 264°
2026-04-12 06:33 40.16225 94.80679 3698 ft 13 kts 355°
2026-04-12 06:33 40.16321 94.80666 3697 ft 13 kts 354°
2026-04-12 06:34 40.16396 94.80639 3700 ft 10 kts 315°
2026-04-12 06:34 40.16456 94.80610 3696 ft 9 kts 356°
2026-04-12 06:34 40.16503 94.80604 3696 ft 4 kts 353°
2026-04-12 06:34 40.16504 94.80604 3696 ft 0 kts 353°